Starlink 30308

operational
NORAD ID: 57742 Int'l Des: 2023-131 Owner: SPXS Country: US Constellation: starlink
LEOCIRCULAR

About Starlink 30308

Description loading...

Live Position

Loading 3D Globe...

Upcoming Passes

Altitude History

Altitude vs Time

uPlot chart will show altitude changes over time

Two-Line Element Set

1 57742U 23131L 25349.13894942 -.00000913 00000-0 -52503-4 0 9992
2 57742 43.0035 271.3831 0001118 264.4403 95.6312 15.02530924127211
Epoch: Dec 15, 2025 • Age: 31 hours

Current Status

Altitude 566.4 km
Velocity 7.58 km/s
Sub-Earth Point -29.55°S, 123.6°W
Launch Date Sep 1, 2023
Age 2.2 years
Type internet

Technical Details

Classification Payload
Mass 730.00 kg
Dry Mass 700.00 kg
Total Mass 730.00 kg
Length 0.30 m
Diameter 4.10 m
Span 29.00 m
Shape Box + pan
Manufacturer SPXS
Bus Type Starlink V2M
Phase Status In Orbit
Owner/State SPXS/US

Large Constellations

Loading constellations...